Location: Little Chesterford
(52.0500°N, 0.1833°E)
Time: 11:53:18
(UTC+00:00)

CZ-4 R/B - Pass Details

Date: 26 September 2023
Orbit: 521 x 578 km, 97.7° (Epoch: 10 December)

Event Time Altitude Azimuth Distance (km) Brightness Sun altitude
Rises 18:17:25 0° 139° (SE) 2,681 4.4 -5.2°
Reaches altitude 10° 18:19:41 10° 129° (SE) 1,785 3.4 -5.5°
Maximum altitude 18:23:07 31° 66° (ENE) 940 2.1 -6.1°
Drops below altitude 10° 18:26:31 10° 4° (N) 1,778 4.0 -6.6°
Enters shadow 19:31:41 -48° 171° (S) 10,152 7.7 -16.3°
